sat.trackr.live / text

‹ back to catalog

PROTOMETHEE

NORAD 58321 · 2023-174BT

PAYLOAD ACTIVE UNKNOWN

§ Identity

Operator
Country
FR
Launch date
2023-11-11
Launch site
AFWTR
Launch vehicle
Mass (kg)
RCS (m²)

External: N2YO · Heavens-Above · Gunter

§ Orbital elements

Epoch: 2026-09-21T22:42:43.107264Z

Period
93.96 min
Inclination
97.3705°
Eccentricity
0.0007861
Mean motion
15.32576963 rev/d
Perigee alt
462.7 km
Apogee alt
473.5 km
Semi-major
6,846.3 km
B*
1.5373e-4
RAAN
342.9274°
Arg perigee
169.4809°
Mean anomaly
190.6599°
Rev number
15,978

§ Raw data

PROTOMETHEE1 58321U 23174BT  26264.94633226  .00004761  00000+0  15373-3 0  99902 58321  97.3705 342.9274 0007861 169.4809 190.6599 15.32576963159788

JSON: /api/v1/satellites/58321 · /tle

For live sub-satellite position, see the globe view (requires WebGL).

§ Visibility from observer

Set your observer location to see the next 7 days of passes ≥ 10°. The values pass through the URL so the page stays shareable.

No JS? Fill the form by hand. The geolocation button needs JavaScript.